Погода в Пхичите

Таиланд     16°26′34″N   100°20′37″E
темп.,
°C
ветер,
м/с
пор.,
м/с
влажн.,
%
обл.,
%
осадки,
мм/ч
давл.,
гПа
погр.,
м
12 апреля, пн
пн1201:00+30ююз015490 0.1 101029
04:00+29вюв115789 0.0 101011
07:00+29ююз1363100 0.0 1012129
10:00+33ююв214970 0.0 10131114
13:00+37ю223858 0.0 10102478
16:00+36ю333835 0.1 10071420
19:00+32юв36525 0.2 1008163
22:00+31ююв24536 0.0 1010101
13 апреля, вт
вт1301:00+30юв225898 0.5 101045
04:00+28ююв3665100 0.1 1009255
07:00+28юв3570100 0.2 1011297
10:00+33ю335058 0.0 1012915
13:00+37ю223626 0.0 10092064
16:00+39юз123097 0.0 10042839
19:00+36юв2337100 0.0 100649
22:00+33юз0446100 0.1 1009356
14 апреля, ср
ср1401:00+32сз1452100 0.2 1009371
04:00+26сз5981100 2.0 1009307
07:00+27вюв1277100 3.9 1010150
10:00+31с115792 0.0 1012727
13:00+36зсз014228 0.0 10091699
16:00+37в123743 0.0 10042121
19:00+34юв3545100 0.0 1004215
22:00+23ююз3696100 58.3 1008294
15 апреля, чт
чт1501:00+25в2280100 87.2 1010234
04:00+26ююз1279100 0.0 1009240
07:00+26вюв2279100 0.0 1010195
10:00+30ююз1161100 0.0 1012764
13:00+33юз0151100 0.0 10091371
16:00+34вюв1148100 0.0 10071513
19:00+32в225697 0.0 100719
22:00+30ююз2258100 0.0 100957
16 апреля, пт
пт1601:00+28ююз3666100 0.2 1008198
04:00+27ююв2468100 0.0 1007148
07:00+27ююв2373100 0.0 1009194
10:00+30ю3360100 0.0 1012827
13:00+35ююз124549 0.0 10091595
16:00+36ююв124028 0.0 10052173
19:00+32юв365499 0.1 1006235
22:00+29вюв486590 0.3 1010391